[[{"header":{"parameterUnit":"m.s-1","parameterCategory":1,"la1":30.2991,"la2":30.254,"lo1":-89.0895,"lo2":-89.0444,"dy":0.0017,"dx":0.0017,"nx":28,"ny":28,"refTime":"2024-06-10T09:00:00:Z","depth":0,"parameterNumber":2,"parameterNumberName":"U-component_of_WINDS"},"data":[0,0,0,0,0,0,0,0,0,0,0,0,0,0,0,0,0,0,0,0,0,0,0,0,0,0,0,0,0,0,0,0,0,0,0,0,0,0,0,0,0,0,0,0,0,0,0,0,0,0,0,0,0,0,0,0,0,0,1.9369,1.937,0,1.95,1.9501,1.9503,1.9489,1.9487,1.9485,1.9483,1.9624,1.9629,1.9635,0,0,0,0,0,0,0,0,0,0,0,0,0,1.9115,1.912,1.9369,1.937,1.9372,1.9499,1.9501,1.9503,1.949,1.9487,1.9485,1.9482,1.9622,1.9629,1.9635,0,0,0,0,0,0,0,0,0,0,0,0,0,1.9234,1.9121,1.9368,1.938,1.9383,1.9499,1.9501,1.9503,1.949,1.9487,1.9484,1.9481,1.962,1.9628,1.9636,1.9751,0,0,1.9662,1.9666,0,0,0,0,0,0,0,0,1.9227,1.9243,1.9377,1.938,1.9383,1.9475,1.9463,1.9587,1.9491,1.945,1.9483,1.948,1.9577,1.9589,1.9621,1.9757,1.9763,1.9663,1.9668,1.9672,1.9674,0,0,0,0,0,0,0,1.9219,1.9237,1.9421,1.9379,1.9383,1.9382,1.9395,1.9487,1.9529,1.9453,1.9452,1.9468,1.9578,1.9612,1.9624,1.9765,1.9663,1.967,1.9676,1.9679,2.0007,2.001,0,0,0,0,0,0,1.9207,1.9231,1.9416,1.9424,1.9295,1.9389,1.9404,1.9449,1.9528,1.9537,1.947,1.9467,1.9599,1.9614,1.9629,1.9771,1.9672,1.968,1.9685,2.0003,2.0008,2.0012,0,0,0,0,0,0,1.9201,1.9223,1.9411,1.9327,1.9351,1.9397,1.9447,1.9453,1.9487,1.9541,1.9549,1.9497,1.9597,1.9617,1.9721,1.9775,1.9684,1.9691,1.9999,2.0005,2.001,2.0054,0,0,0,0,0,0,1.9194,1.9221,1.9263,1.9328,1.9356,1.9499,1.945,1.9457,1.9501,1.9497,1.9568,1.9577,1.9597,1.9708,1.9729,1.9785,1.9698,1.9995,2.0002,2.0008,2.0048,2.006,2.0071,0,0,0,0,0,1.9185,1.9271,1.9265,1.9288,1.9409,1.9502,1.9518,1.9537,1.9505,1.9549,1.9585,1.9575,1.9765,1.9719,1.9743,1.9802,1.9991,2.0,2.0008,2.0043,2.0058,2.007,0,0,0,0,0,0,1.9213,1.928,1.9274,1.9383,1.9437,1.9499,1.9555,1.9551,1.9616,1.9611,1.9633,1.9649,1.9755,1.9789,1.9736,1.9919,1.9875,1.9888,1.9893,1.9908,1.9919,1.991,1.9705,0,0,0,0,0,1.9231,1.9299,1.9355,1.9446,1.9473,1.951,1.9551,1.9561,1.9618,1.9641,1.9684,1.9742,1.9815,1.9863,1.9933,2.0052,2.007,2.0105,2.0116,2.0125,2.0137,2.0207,2.0224,2.0038,2.0038,2.0038,0,0,1.9271,1.9316,1.9358,1.9453,1.9495,1.9568,1.9529,1.9607,1.9662,1.9654,1.9755,1.9789,1.9855,1.9968,2.002,1.9999,2.0192,2.0136,2.0143,2.015,2.0217,2.0234,2.025,2.0044,2.0043,2.0042,0,0,1.9381,1.942,1.9502,1.9545,1.961,1.9634,1.9654,1.9718,1.974,1.9841,1.9837,1.9905,2.0029,2.0078,2.0119,2.0249,2.0245,2.0272,2.0332,2.04,2.0414,2.0427,2.0477,2.0495,2.0283,2.0283,2.0283,0,1.9423,1.9529,1.9545,1.9624,1.9668,1.9662,1.9747,1.9789,1.9875,1.9906,1.9881,2.004,2.0084,2.021,2.0242,2.0274,2.03,2.0265,2.041,2.0424,2.0436,2.0484,2.0503,2.0286,2.0286,2.0286,2.0285,0,1.958,1.9654,1.9713,1.9794,1.9844,1.9926,1.9957,2.0006,2.0012,2.004,2.0146,2.0198,2.0281,2.0311,2.0317,2.0439,2.0425,2.0405,2.0361,2.0457,2.0503,2.0521,2.0291,2.029,2.0289,2.0288,0,0,1.9711,1.98,1.9822,1.986,1.9932,1.9991,2.0074,2.0153,2.0197,2.0256,2.0329,2.0435,2.0418,2.0465,2.0477,2.0536,2.0641,2.0509,2.0511,2.0535,2.0782,2.0799,2.0819,2.0637,2.064,2.0643,2.0778,0,1.983,1.9975,1.9992,2.0123,2.0194,2.019,2.0264,2.0317,2.0346,2.0413,2.0445,2.0522,2.0491,2.052,2.0577,2.0615,2.0691,2.0606,2.0708,2.0712,2.0694,2.0843,2.086,2.0984,2.0795,2.0798,2.08,0,1.9989,2.0052,2.0189,2.0253,2.0284,2.0349,2.0424,2.0487,2.0549,2.0566,2.0619,2.0625,2.0714,2.0665,2.0791,2.0733,2.0776,2.0801,2.0807,2.0819,2.0764,2.0862,2.1024,2.1044,2.0828,2.0826,2.0824,0,2.0075,2.0194,2.0292,2.0325,2.0401,2.0448,2.0483,2.0541,2.0589,2.0655,2.0687,2.0764,2.0806,2.0867,2.0895,2.0856,2.102,2.0972,2.104,2.104,2.1077,2.1074,2.1251,2.11,2.1099,2.1099,2.1099,0,2.0208,2.0293,2.0332,2.0393,2.0489,2.051,2.0605,2.0638,2.0691,2.0761,2.0762,2.0828,2.0859,2.0931,2.0953,2.1056,2.1074,2.1093,2.1099,2.1095,2.1093,2.1125,2.1118,2.1104,2.1103,2.1102,2.1101,0,2.0321,2.035,2.0458,2.0522,2.054,2.0609,2.0665,2.0726,2.0754,2.0842,2.0864,2.0909,2.0994,2.1027,2.113,2.1145,2.1265,2.1262,2.1244,2.1246,2.1313,2.1307,2.1518,2.1549,2.1375,2.1376,2.1378,0,2.0405,2.047,2.0542,2.0588,2.0624,2.0697,2.0746,2.0769,2.082,2.0897,2.0949,2.1033,2.1101,2.1237,2.1281,2.1362,2.1363,2.1431,2.1375,2.137,2.1368,2.1364,2.1373,2.1442,2.1444,2.1445,2.1446,0,2.0553,2.0565,2.0633,2.0708,2.0765,2.0825,2.0884,2.0922,2.0955,2.1012,2.1098,2.1151,2.1257,2.1342,2.1424,2.1463,2.1463,2.1463,2.1484,2.1482,2.147,2.1481,2.1275,2.1459,2.1458,2.1457,2.1456,2.1456,2.0657,2.0716,2.0776,2.0853,2.0899,2.0954,2.1015,2.1051,2.1122,2.1209,2.1219,2.1312,2.1376,2.1487,2.1529,2.1604,2.1587,2.1615,2.1623,2.1631,2.1637,2.1456,2.1619,2.1619,2.1619,2.1618,2.1618,0,2.0807,2.0846,2.0916,2.0998,2.106,2.1051,2.1116,2.1169,2.125,2.1309,2.1376,2.1476,2.1559,2.1609,2.1693,2.1744,2.1746,2.1766,2.1764,2.1774,2.1647,2.1622,2.1763,2.1763,2.1763,2.1763,2.1763,2.1763,2.0893,2.0993,2.1013,2.1138,2.1176,2.1266,2.1304,2.1357,2.1404,2.1515,2.1583,2.1615,2.1672,2.176,2.1837,2.185,2.1882,2.1904,2.1916,2.1797,2.1782,2.1768,2.1745,2.191,2.191,2.2037,2.2038,2.2039]},{"header":{"parameterUnit":"m.s-1","parameterCategory":1,"la1":30.2991,"la2":30.254,"lo1":-89.0895,"lo2":-89.0444,"dy":0.0017,"dx":0.0017,"nx":28,"ny":28,"refTime":"2024-06-10T09:00:00:Z","depth":0,"parameterNumber":3,"parameterNumberName":"V-component_of_WINDS"},"data":[0,0,0,0,0,0,0,0,0,0,0,0,0,0,0,0,0,0,0,0,0,0,0,0,0,0,0,0,0,0,0,0,0,0,0,0,0,0,0,0,0,0,0,0,0,0,0,0,0,0,0,0,0,0,0,0,0,0,0.1284,0.1285,0,0.1371,0.1372,0.1373,0.131,0.1307,0.1304,0.1302,0.1396,0.1401,0.1406,0,0,0,0,0,0,0,0,0,0,0,0,0,0.1066,0.1071,0.1284,0.1285,0.1287,0.1371,0.1372,0.1374,0.1311,0.1307,0.1304,0.13,0.1394,0.14,0.1406,0,0,0,0,0,0,0,0,0,0,0,0,0,0.1158,0.1072,0.1284,0.1265,0.1264,0.1371,0.1373,0.1374,0.1311,0.1307,0.1303,0.1299,0.1392,0.1399,0.1407,0.1539,0,0,0.143,0.1434,0,0,0,0,0,0,0,0,0.1153,0.1166,0.1267,0.1267,0.1266,0.1325,0.133,0.1429,0.1312,0.1294,0.1302,0.1297,0.1376,0.1385,0.141,0.1543,0.1547,0.1431,0.1436,0.1439,0.1441,0,0,0,0,0,0,0,0.1147,0.1162,0.1319,0.1268,0.1268,0.1253,0.1261,0.1348,0.1358,0.1295,0.129,0.1301,0.1375,0.1403,0.1412,0.1548,0.1431,0.1438,0.1442,0.1445,0.179,0.1794,0,0,0,0,0,0,0.1142,0.1157,0.1316,0.1322,0.1198,0.126,0.127,0.1311,0.1356,0.1359,0.1305,0.1298,0.1392,0.1403,0.1415,0.1569,0.1439,0.1446,0.1451,0.1785,0.1791,0.1796,0,0,0,0,0,0,0.1137,0.1156,0.1313,0.1238,0.1257,0.1269,0.1315,0.1315,0.1343,0.1364,0.1365,0.1332,0.1389,0.1404,0.1507,0.1572,0.145,0.1457,0.178,0.1787,0.1793,0.1881,0,0,0,0,0,0,0.1131,0.1155,0.1205,0.124,0.1261,0.1403,0.1319,0.1319,0.1355,0.1347,0.139,0.1393,0.1387,0.1496,0.1515,0.158,0.1463,0.1774,0.1783,0.1791,0.1872,0.189,0.1905,0,0,0,0,0,0.1124,0.1228,0.1208,0.1227,0.1323,0.1407,0.1419,0.1409,0.1361,0.1411,0.1424,0.1391,0.1562,0.1507,0.1528,0.1596,0.177,0.1781,0.1791,0.1865,0.1886,0.1904,0,0,0,0,0,0,0.1202,0.1232,0.121,0.1328,0.1365,0.1396,0.1458,0.1433,0.1485,0.1476,0.1463,0.1473,0.158,0.1599,0.1537,0.1725,0.1659,0.1673,0.1708,0.1728,0.1744,0.1737,0.1469,0,0,0,0,0,0.1233,0.1297,0.132,0.1423,0.1442,0.1447,0.1483,0.1472,0.151,0.1526,0.1547,0.1587,0.1648,0.169,0.1749,0.1875,0.1882,0.1932,0.1949,0.1962,0.1974,0.2039,0.2061,0.1829,0.1829,0.1829,0,0,0.1298,0.1322,0.1364,0.1439,0.1466,0.1533,0.1461,0.1536,0.1585,0.1538,0.1635,0.1652,0.1695,0.1809,0.1861,0.1828,0.204,0.1975,0.1985,0.1991,0.2052,0.2074,0.2093,0.1836,0.1835,0.1834,0,0,0.145,0.1475,0.1561,0.1589,0.163,0.1633,0.1654,0.1688,0.1696,0.1793,0.1758,0.1818,0.1926,0.1957,0.1987,0.2148,0.2119,0.2168,0.2253,0.2316,0.2334,0.235,0.2405,0.2425,0.2181,0.2181,0.2181,0,0.1525,0.1623,0.161,0.1685,0.1718,0.1677,0.1764,0.1793,0.1852,0.1876,0.1839,0.1971,0.1998,0.2117,0.2156,0.2183,0.2205,0.2162,0.2333,0.2349,0.2363,0.2415,0.2436,0.2186,0.2186,0.2185,0.2185,0,0.1713,0.1781,0.1846,0.1901,0.1942,0.2024,0.2022,0.2065,0.2051,0.2057,0.2155,0.2185,0.2248,0.2276,0.2264,0.2393,0.2371,0.2334,0.2267,0.2391,0.2439,0.2459,0.2194,0.2192,0.2191,0.2189,0,0,0.1916,0.1961,0.1984,0.2007,0.2049,0.2102,0.2181,0.224,0.2276,0.2319,0.2383,0.2475,0.2439,0.2473,0.2465,0.2521,0.2642,0.2476,0.2477,0.2503,0.2783,0.2808,0.2832,0.2624,0.2628,0.2631,0.2778,0,0.2067,0.2202,0.2191,0.232,0.2381,0.2343,0.2411,0.2444,0.2452,0.2507,0.2516,0.258,0.253,0.255,0.2604,0.2616,0.2698,0.2606,0.2683,0.2686,0.267,0.2858,0.2886,0.3023,0.2797,0.2801,0.2803,0,0.2261,0.2307,0.244,0.2469,0.2495,0.2557,0.2608,0.2661,0.2697,0.2699,0.2736,0.2717,0.2796,0.2729,0.2837,0.2774,0.2806,0.2816,0.2821,0.2826,0.275,0.2865,0.3067,0.3087,0.2833,0.2831,0.2829,0,0.2392,0.2487,0.2578,0.26,0.2637,0.2681,0.2699,0.2731,0.2766,0.2812,0.2834,0.289,0.292,0.2964,0.296,0.2912,0.3069,0.3002,0.3072,0.3072,0.3105,0.3102,0.3312,0.313,0.313,0.3129,0.3129,0,0.256,0.2643,0.2637,0.2693,0.2784,0.2771,0.2861,0.2875,0.2903,0.2961,0.2933,0.2987,0.298,0.3035,0.3034,0.3122,0.3137,0.3139,0.3137,0.314,0.3139,0.3159,0.3148,0.3135,0.3134,0.3132,0.3132,0,0.2721,0.2721,0.2817,0.2843,0.2852,0.2917,0.294,0.2993,0.2998,0.3071,0.3088,0.3097,0.316,0.316,0.3234,0.3232,0.3339,0.3328,0.3326,0.3323,0.3391,0.3383,0.3618,0.3647,0.3449,0.3451,0.3453,0,0.2826,0.2888,0.292,0.2956,0.2975,0.3034,0.3069,0.3059,0.3096,0.3141,0.3188,0.3248,0.3295,0.3398,0.3412,0.3467,0.3455,0.3534,0.3463,0.3463,0.3452,0.3447,0.3452,0.3547,0.3549,0.3551,0.3552,0,0.3013,0.3009,0.3059,0.3109,0.3151,0.3191,0.3227,0.3258,0.3252,0.3296,0.3359,0.3396,0.3469,0.3528,0.3581,0.36,0.3575,0.3574,0.3593,0.3595,0.3589,0.359,0.336,0.3568,0.3567,0.3566,0.3565,0.3564,0.3147,0.3199,0.3228,0.3285,0.3311,0.3345,0.3394,0.3405,0.3457,0.3513,0.3505,0.3575,0.3608,0.3676,0.37,0.3754,0.3727,0.3754,0.3761,0.3767,0.3772,0.3583,0.3764,0.3764,0.3763,0.3763,0.3763,0,0.3329,0.3346,0.3398,0.3448,0.3492,0.3463,0.3502,0.3541,0.3602,0.3634,0.368,0.3751,0.3808,0.3825,0.388,0.392,0.391,0.3935,0.393,0.3934,0.3796,0.3772,0.3942,0.3942,0.3942,0.3942,0.3942,0.3942,0.3428,0.3513,0.3513,0.361,0.3627,0.3693,0.3717,0.3748,0.3773,0.3853,0.3899,0.3909,0.3935,0.3991,0.4042,0.4045,0.4066,0.4095,0.4093,0.3963,0.3945,0.3927,0.3905,0.41,0.41,0.4227,0.4228,0.4229]}]]